Champaign, IL

2:51 PM CST on December 16, 2017 (GMT -0600)
Univ Of Illinois-Willard

Weather History for KCMI - February, 2014

Change the Weather History Date:

Tuesday, February 25, 2014

  Actual Average Record
Temperature  
Mean Temperature 18 °F 33 °F  
Max Temperature 25 °F 41 °F 60 °F (1998)
Min Temperature 11 °F 25 °F -2 °F (2003)
Degree Days  
Heating Degree Days 47 32  
Month to date heating degree days 1153 900  
Since 1 July heating degree days 4933 4410  
Cooling Degree Days 0 0  
Month to date cooling degree days 0 0  
Year to date cooling degree days 0 0  
Moisture  
Dew Point 14 °F    
Average Humidity 75    
Maximum Humidity 88    
Minimum Humidity 61    
Precipitation  
Precipitation T in 0.07 in 0.24 in (2002)
Month to date precipitation 2.04 1.81  
Year to date precipitation 2.75 3.86  
Sea Level Pressure  
Sea Level Pressure 30.24 in    
Wind  
Wind Speed 13 mph (NW)    
Max Wind Speed 23 mph    
Max Gust Speed 28 mph    
Visibility 8 miles    
Events Snow    
T = Trace of Precipitation, MM = Missing Value Source: NWS Daily Summary

Daily Weather History Graph

Daily Weather History Graph

Search for Another Location

Airport or City:

Trip Planner

Search our weather history database for the weather conditions in past years. The results will help you decide how hot, cold, wet, or windy it might be!

Date:

Astronomy

Feb. 25, 2014 Rise Set
Actual Time 6:32 AM CST 5:40 PM CST
Civil Twilight 6:05 AM CST 6:07 PM CST
Nautical Twilight 5:33 AM CST 6:39 PM CST
Astronomical Twilight 5:02 AM CST 7:10 PM CST
Moon 3:27 AM CST (2/25) 1:46 PM CST (2/25)
Length of Visible Light 12h 02m
Length of Day
11h 08m
Waning Crescent, 18% of the Moon is Illuminated
Feb 25
Waning Crescent
Mar 1
New
Mar 8
First Quarter
Mar 16
Full
Mar 23
Last Quarter

Hourly Weather History & Observations

Time (CST) Temp. Windchill Dew Point Humidity Pressure Visibility Wind Dir Wind Speed Gust Speed Precip Events Conditions
12:06 AM 24.8 °F 14.6 °F 17.6 °F 74% 30.22 in 2.5 mi WNW 10.4 mph - 0.00 in Snow Light Snow
12:22 AM 24.8 °F 14.6 °F 17.6 °F 74% 30.22 in 3.0 mi WNW 10.4 mph - 0.00 in Snow Light Snow
12:46 AM 23.0 °F 11.7 °F 17.6 °F 80% 30.22 in 1.8 mi NW 11.5 mph - 0.00 in Snow Light Snow
12:53 AM 23.0 °F 13.1 °F 18.0 °F 81% 30.26 in 1.8 mi WNW 9.2 mph - 0.00 in Snow Light Snow
1:00 AM 23.0 °F 12.4 °F 17.6 °F 80% 30.23 in 3.0 mi NW 10.4 mph - 0.00 in Snow Light Snow
1:07 AM 21.2 °F 10.9 °F 17.6 °F 86% 30.23 in 4.0 mi WNW 9.2 mph - 0.00 in Snow Light Snow
1:53 AM 23.0 °F 12.4 °F 18.0 °F 81% 30.27 in 4.0 mi WNW 10.4 mph - 0.00 in Snow Light Snow
2:09 AM 21.2 °F 7.3 °F 17.6 °F 86% 30.24 in 2.5 mi NNW 16.1 mph 19.6 mph 0.00 in Snow Light Snow
2:21 AM 21.2 °F 6.8 °F 17.6 °F 86% 30.24 in 1.2 mi NNW 17.3 mph - 0.00 in Snow Light Snow
2:33 AM 21.2 °F 10.1 °F 15.8 °F 80% 30.23 in 3.0 mi NW 10.4 mph - 0.00 in Snow Light Snow
2:45 AM 21.2 °F 10.9 °F 15.8 °F 80% 30.23 in 6.0 mi NNW 9.2 mph - 0.00 in Snow Light Snow
2:53 AM 21.0 °F 10.6 °F 17.1 °F 85% 30.26 in 6.0 mi NNW 9.2 mph - 0.00 in Snow Light Snow
3:53 AM 19.9 °F 10.1 °F 16.0 °F 85% 30.25 in 10.0 mi NNW 8.1 mph - 0.00 in   Overcast
4:53 AM 19.9 °F 8.6 °F 15.1 °F 81% 30.26 in 9.0 mi NW 10.4 mph - 0.00 in   Overcast
5:53 AM 19.0 °F 7.5 °F 15.1 °F 85% 30.27 in 8.0 mi NW 10.4 mph - N/A   Overcast
6:53 AM 15.1 °F 4.2 °F 12.0 °F 88% 30.28 in 10.0 mi NW 8.1 mph - N/A   Mostly Cloudy
7:05 AM 17.6 °F 5.7 °F 14.0 °F 86% 30.24 in 10.0 mi NW 10.4 mph - N/A   Mostly Cloudy
7:53 AM 18.0 °F 4.8 °F 12.9 °F 81% 30.29 in 10.0 mi NNW 12.7 mph - N/A   Overcast
8:53 AM 19.0 °F 8.2 °F 14.0 °F 81% 30.29 in 10.0 mi NW 9.2 mph - 0.00 in   Overcast
9:53 AM 19.9 °F 9.3 °F 14.0 °F 78% 30.30 in 10.0 mi NW 9.2 mph - N/A   Mostly Cloudy
10:53 AM 21.0 °F 11.4 °F 14.0 °F 74% 30.29 in 10.0 mi West 8.1 mph - N/A   Mostly Cloudy
11:00 AM 21.2 °F 11.7 °F 14.0 °F 74% 30.25 in 10.0 mi WNW 8.1 mph - N/A   Mostly Cloudy
11:53 AM 21.9 °F 10.4 °F 15.1 °F 75% 30.29 in 10.0 mi WNW 11.5 mph - N/A   Mostly Cloudy
12:53 PM 23.0 °F 11.7 °F 15.1 °F 72% 30.27 in 10.0 mi WNW 11.5 mph - N/A   Overcast
1:53 PM 24.1 °F 12.0 °F 15.1 °F 69% 30.26 in 10.0 mi West 13.8 mph - N/A   Overcast
2:53 PM 24.1 °F 12.0 °F 16.0 °F 71% 30.24 in 10.0 mi WNW 13.8 mph - N/A   Overcast
3:53 PM 24.1 °F 11.5 °F 15.1 °F 69% 30.23 in 10.0 mi WNW 15.0 mph - N/A   Overcast
4:53 PM 23.0 °F 10.6 °F 15.1 °F 72% 30.22 in 10.0 mi WNW 13.8 mph - N/A   Overcast
5:19 PM 21.2 °F 7.8 °F 15.8 °F 80% 30.18 in 10.0 mi West 15.0 mph - N/A   Overcast
5:36 PM 21.2 °F 7.3 °F 14.0 °F 74% 30.18 in 10.0 mi West 16.1 mph - N/A   Overcast
5:51 PM 21.2 °F 6.8 °F 14.0 °F 74% 30.18 in 10.0 mi West 17.3 mph - N/A   Scattered Clouds
5:53 PM 21.9 °F 7.8 °F 12.9 °F 68% 30.22 in 10.0 mi West 17.3 mph - N/A   Scattered Clouds
6:32 PM 21.2 °F 6.8 °F 14.0 °F 74% 30.20 in 10.0 mi West 17.3 mph - N/A   Mostly Cloudy
6:53 PM 19.9 °F 3.9 °F 10.0 °F 65% 30.24 in 10.0 mi WNW 20.7 mph - N/A   Mostly Cloudy
7:02 PM 19.4 °F 3.6 °F 10.4 °F 68% 30.20 in 10.0 mi WNW 19.6 mph 26.5 mph N/A   Scattered Clouds
7:53 PM 19.0 °F 3.2 °F 10.0 °F 68% 30.24 in 10.0 mi WNW 19.6 mph - N/A   Mostly Cloudy
8:34 PM 17.6 °F 0.5 °F 10.4 °F 73% 30.21 in 10.0 mi WNW 21.9 mph 27.6 mph N/A   Mostly Cloudy
8:53 PM 17.1 °F 0.1 °F 8.1 °F 68% 30.25 in 10.0 mi WNW 20.7 mph - N/A   Mostly Cloudy
9:06 PM 15.8 °F -1.9 °F 6.8 °F 68% 30.21 in 10.0 mi WNW 21.9 mph - N/A   Scattered Clouds
9:53 PM 14.0 °F -4.3 °F 5.0 °F 67% 30.27 in 10.0 mi WNW 21.9 mph 26.5 mph N/A   Partly Cloudy
10:53 PM 12.9 °F -3.9 °F 1.9 °F 62% 30.27 in 10.0 mi WNW 17.3 mph - N/A   Clear
11:53 PM 10.9 °F -7.5 °F 1.0 °F 64% 30.29 in 10.0 mi NW 19.6 mph 27.6 mph N/A   Clear